Pampa, TX

6:19 PM CST on December 17, 2017 (GMT -0600)
Perry Lefors

Weather History for KPPA - April, 2013

Change the Weather History Date:

Thursday, April 11, 2013

  Actual Average Record
Temperature  
Mean Temperature 41 °F -  
Max Temperature 65 °F 69 °F 91 °F (1972)
Min Temperature 17 °F 41 °F 17 °F (2013)
Degree Days  
Heating Degree Days 24    
Moisture  
Dew Point 16 °F    
Average Humidity 39    
Maximum Humidity 74    
Minimum Humidity 14    
Precipitation  
Precipitation 0.00 in - - ()
Sea Level Pressure  
Sea Level Pressure 29.85 in    
Wind  
Wind Speed 9 mph (NW)    
Max Wind Speed 23 mph    
Max Gust Speed 30 mph    
Visibility 10 miles    
Events      
Averages and records for this station are not official NWS values.
T = Trace of Precipitation, MM = Missing Value Source: NWS Daily Summary

Daily Weather History Graph

Daily Weather History Graph

Search for Another Location

Airport or City:

Trip Planner

Search our weather history database for the weather conditions in past years. The results will help you decide how hot, cold, wet, or windy it might be!

Date:

Astronomy

Apr. 11, 2013 Rise Set
Actual Time 7:16 AM CDT 8:14 PM CDT
Civil Twilight 6:50 AM CDT 8:40 PM CDT
Nautical Twilight 6:19 AM CDT 9:11 PM CDT
Astronomical Twilight 5:47 AM CDT 9:43 PM CDT
Moon 7:52 AM CDT (4/11) 9:46 PM CDT (4/11)
Length of Visible Light 13h 50m
Length of Day
12h 57m
New Moon, 2% of the Moon is Illuminated
Apr 11
New Moon
Apr 18
First Quarter
Apr 25
Full
May 2
Last Quarter
May 9
New

Hourly Weather History & Observations

Time (CDT) Temp. Windchill Dew Point Humidity Pressure Visibility Wind Dir Wind Speed Gust Speed Precip Events Conditions
12:15 AM 27.5 °F 19.3 °F 10.6 °F 49% 30.01 in 10.0 mi North 8.1 mph - N/A   Clear
12:35 AM 27.0 °F 18.0 °F 10.9 °F 51% 30.01 in 10.0 mi North 9.2 mph - N/A   Clear
12:55 AM 27.5 °F 18.6 °F 10.9 °F 50% 30.01 in 10.0 mi North 9.2 mph - N/A   Clear
1:15 AM 27.1 °F 18.2 °F 10.8 °F 50% 30.00 in 10.0 mi North 9.2 mph - N/A   Clear
1:35 AM 26.6 °F 16.2 °F 11.3 °F 53% 29.99 in 10.0 mi North 11.5 mph - N/A   Clear
1:55 AM 25.7 °F 15.7 °F 11.3 °F 55% 29.97 in 10.0 mi North 10.4 mph - N/A   Clear
2:15 AM 25.2 °F 16.5 °F 11.3 °F 56% 29.96 in 10.0 mi North 8.1 mph - N/A   Clear
2:35 AM 24.3 °F 14.6 °F 11.3 °F 58% 29.95 in 10.0 mi North 9.2 mph - N/A   Clear
2:55 AM 23.7 °F 15.6 °F 11.3 °F 59% 29.94 in 10.0 mi NNW 6.9 mph - N/A   Clear
3:15 AM 22.6 °F 14.3 °F 11.1 °F 61% 29.94 in 10.0 mi North 6.9 mph - N/A   Clear
3:35 AM 22.1 °F 14.7 °F 11.3 °F 63% 29.92 in 10.0 mi North 5.8 mph - N/A   Clear
3:55 AM 21.7 °F 13.2 °F 10.9 °F 63% 29.92 in 10.0 mi NNW 6.9 mph - N/A   Clear
4:15 AM 21.0 °F 16.2 °F 10.9 °F 65% 29.92 in 10.0 mi WNW 3.5 mph - N/A   Clear
4:35 AM 22.1 °F - 10.9 °F 62% 29.91 in 10.0 mi Calm Calm - N/A   Clear
4:55 AM 20.8 °F 16.0 °F 10.4 °F 64% 29.91 in 10.0 mi West 3.5 mph - N/A   Clear
5:15 AM 21.9 °F 17.2 °F 10.8 °F 62% 29.90 in 10.0 mi West 3.5 mph - N/A   Clear
5:35 AM 22.1 °F 17.4 °F 10.4 °F 61% 29.89 in 10.0 mi WNW 3.5 mph - N/A   Clear
5:55 AM 21.2 °F 16.4 °F 10.8 °F 64% 29.89 in 10.0 mi WNW 3.5 mph - N/A   Clear
6:15 AM 21.2 °F 14.9 °F 10.9 °F 65% 29.90 in 10.0 mi WNW 4.6 mph - N/A   Clear
6:35 AM 19.0 °F 11.1 °F 10.2 °F 69% 29.90 in 10.0 mi WSW 5.8 mph - N/A   Clear
6:55 AM 17.8 °F 7.5 °F 10.8 °F 74% 29.90 in 10.0 mi West 8.1 mph - N/A   Clear
7:15 AM 19.8 °F 13.2 °F 11.3 °F 70% 29.91 in 10.0 mi West 4.6 mph - N/A   Clear
7:35 AM 19.8 °F 9.9 °F 12.0 °F 72% 29.90 in 10.0 mi West 8.1 mph - N/A   Clear
7:55 AM 22.6 °F 13.4 °F 13.5 °F 68% 29.90 in 10.0 mi West 8.1 mph - N/A   Clear
8:15 AM 26.1 °F 16.8 °F 13.1 °F 58% 29.89 in 10.0 mi West 9.2 mph - N/A   Clear
8:35 AM 28.9 °F 19.8 °F 12.4 °F 50% 29.88 in 10.0 mi West 10.4 mph - N/A   Clear
8:55 AM 31.8 °F 22.8 °F 11.5 °F 43% 29.89 in 10.0 mi West 11.5 mph - N/A   Clear
9:15 AM 32.7 °F 24.5 °F 11.3 °F 41% 29.87 in 10.0 mi West 10.4 mph - N/A   Clear
9:35 AM 34.9 °F 26.6 °F 11.5 °F 38% 29.87 in 10.0 mi WSW 11.5 mph - N/A   Clear
9:55 AM 37.2 °F 30.0 °F 11.8 °F 35% 29.87 in 10.0 mi WSW 10.4 mph - N/A   Clear
10:15 AM 39.6 °F 32.1 °F 12.6 °F 33% 29.87 in 10.0 mi WSW 12.7 mph - N/A   Clear
10:35 AM 41.9 °F 34.0 °F 12.0 °F 30% 29.86 in 10.0 mi WSW 16.1 mph 19.6 mph N/A   Clear
10:55 AM 44.1 °F 35.9 °F 11.8 °F 27% 29.86 in 10.0 mi WSW 19.6 mph 27.6 mph N/A   Clear
11:15 AM 44.8 °F 36.2 °F 12.4 °F 27% 29.86 in 10.0 mi West 23.0 mph 29.9 mph N/A   Clear
11:35 AM 46.6 °F - 12.4 °F 25% 29.85 in 10.0 mi WSW 19.6 mph 27.6 mph N/A   Clear
12:15 PM 50.0 °F - 14.4 °F 24% 29.83 in 10.0 mi WSW 18.4 mph 24.2 mph N/A   Clear
12:35 PM 51.6 °F - 14.9 °F 23% 29.82 in 10.0 mi WSW 19.6 mph 24.2 mph N/A   Clear
12:55 PM 53.2 °F - 15.3 °F 22% 29.81 in 10.0 mi WSW 15.0 mph 25.3 mph N/A   Clear
1:15 PM 55.8 °F - 15.6 °F 21% 29.80 in 10.0 mi WSW 15.0 mph 21.9 mph N/A   Clear
1:35 PM 56.3 °F - 14.9 °F 20% 29.79 in 10.0 mi West 16.1 mph 20.7 mph N/A   Clear
1:55 PM 57.9 °F - 15.4 °F 19% 29.78 in 10.0 mi West 11.5 mph 19.6 mph N/A   Clear
2:15 PM 59.4 °F - 16.3 °F 19% 29.78 in 10.0 mi WNW 5.8 mph - N/A   Clear
2:35 PM 59.5 °F - 16.5 °F 19% 29.76 in 10.0 mi West 8.1 mph - N/A   Clear
2:55 PM 60.8 °F - 16.9 °F 18% 29.76 in 10.0 mi WSW 6.9 mph - N/A   Clear
3:15 PM 61.5 °F - 17.6 °F 18% 29.76 in 10.0 mi NW 8.1 mph - N/A   Clear
3:35 PM 61.9 °F - 17.2 °F 18% 29.76 in 10.0 mi NW 11.5 mph 24.2 mph N/A   Clear
3:55 PM 62.8 °F - 16.9 °F 17% 29.74 in 10.0 mi WNW 8.1 mph - N/A   Clear
4:15 PM 63.7 °F - 16.7 °F 16% 29.74 in 10.0 mi North 12.7 mph 18.4 mph N/A   Clear
4:35 PM 64.0 °F - 16.0 °F 16% 29.73 in 10.0 mi NW 11.5 mph 23.0 mph N/A   Clear
4:55 PM 64.4 °F - 15.3 °F 15% 29.73 in 10.0 mi NNW 10.4 mph 20.7 mph N/A   Clear
5:15 PM 64.4 °F - 15.4 °F 15% 29.73 in 10.0 mi North 10.4 mph 19.6 mph N/A   Clear
5:35 PM 64.6 °F - 15.4 °F 15% 29.73 in 10.0 mi NNW 10.4 mph 18.4 mph N/A   Clear
5:55 PM 65.3 °F - 15.3 °F 14% 29.73 in 10.0 mi WNW 9.2 mph - N/A   Clear
6:15 PM 65.1 °F - 16.0 °F 15% 29.73 in 10.0 mi NW 11.5 mph - N/A   Clear
6:35 PM 65.3 °F - 16.2 °F 15% 29.74 in 10.0 mi NNW 6.9 mph - N/A   Scattered Clouds
6:55 PM 64.4 °F - 22.3 °F 20% 29.75 in 10.0 mi North 20.7 mph 27.6 mph N/A   Clear
7:15 PM 63.0 °F - 23.0 °F 22% 29.75 in 10.0 mi North 16.1 mph 21.9 mph N/A   Clear
7:35 PM 61.3 °F - 23.5 °F 24% 29.76 in 10.0 mi NNE 12.7 mph - N/A   Clear
7:55 PM 58.8 °F - 23.9 °F 26% 29.76 in 10.0 mi NNE 15.0 mph - N/A   Clear
8:15 PM 56.1 °F - 24.4 °F 29% 29.78 in 10.0 mi NNE 13.8 mph - N/A   Clear
8:35 PM 54.1 °F - 24.3 °F 31% 29.79 in 10.0 mi NNE 10.4 mph - N/A   Clear
8:55 PM 51.6 °F - 23.9 °F 34% 29.80 in 10.0 mi NNE 11.5 mph - N/A   Clear
9:15 PM 51.3 °F - 23.9 °F 34% 29.81 in 10.0 mi NNE 10.4 mph - N/A   Clear
9:35 PM 47.8 °F - 23.9 °F 39% 29.82 in 10.0 mi NNE 8.1 mph - N/A   Clear
9:55 PM 46.4 °F 41.9 °F 23.9 °F 41% 29.84 in 10.0 mi NNE 9.2 mph - N/A   Clear
10:15 PM 48.7 °F - 25.5 °F 40% 29.85 in 10.0 mi NNE 11.5 mph - N/A   Clear
10:35 PM 47.5 °F - 25.3 °F 42% 29.85 in 10.0 mi NNE 10.4 mph - N/A   Clear
10:55 PM 46.6 °F - 24.8 °F 43% 29.86 in 10.0 mi NNE 13.8 mph - N/A   Clear
11:15 PM 47.3 °F - 26.1 °F 44% 29.87 in 10.0 mi NE 11.5 mph - N/A   Clear
11:35 PM 45.9 °F 41.2 °F 26.4 °F 47% 29.88 in 10.0 mi NE 9.2 mph - N/A   Clear
11:55 PM 44.1 °F 39.5 °F 26.2 °F 50% 29.89 in 10.0 mi NE 8.1 mph - N/A   Clear